RH
21 19 20 20 22 23 24 23 23 23 22 21 19 19 19 20 19 17 18 16 15 16 17 16 26 24 16 15 14 13 12 11 10 9 8 8 7 7 7 7 10 14 22
27 22 21 21 20 21 23 23 24 24 24 24 23 23 23 23 21 20 20 20 19 19 19 17 21 18 16 15 14 12 11 10 9 8 8 7 6 5 5 5 5 7 13
30 28 26 23 22 23 22 23 24 24 25 25 26 26 26 24 24 24 23 23 22 21 20 19 19 18 17 15 13 11 10 10 8 7 6 5 5 4 4 4 4 4 5
32 31 31 27 26 26 26 26 25 26 27 27 28 29 29 27 26 25 25 25 24 23 23 21 20 19 17 14 13 11 10 8 7 6 5 4 3 3 3 3 3 3 4
36 37 36 33 29 28 28 28 29 30 31 33 32 33 34 33 29 27 26 26 26 26 25 25 24 21 17 15 13 12 9 8 7 6 4 3 3 2 2 3 3 3 3
40 40 40 35 34 32 31 32 33 35 37 38 39 39 39 37 34 33 30 28 27 27 28 29 29 24 19 16 14 11 9 7 7 6 4 3 3 3 3 3 3 3 3
43 42 44 41 37 36 36 38 38 39 41 42 42 42 41 39 38 36 36 33 30 30 31 31 30 26 21 17 16 12 9 8 6 5 4 4 4 4 4 4 4 4 3
48 45 46 42 39 38 40 42 41 43 45 44 42 42 43 44 45 44 40 37 35 36 35 33 31 28 24 21 16 13 11 9 7 6 5 5 5 5 5 5 4 5 4
55 49 49 44 43 43 45 46 46 48 48 47 43 42 46 45 46 45 43 42 41 41 41 37 34 30 26 22 17 14 12 10 9 8 7 6 6 6 6 5 5 5 4
59 55 53 49 47 49 51 50 50 53 50 49 45 44 44 45 48 49 49 48 48 46 43 39 37 34 29 24 19 16 14 12 11 11 10 9 7 7 7 6 5 6 5
66 61 59 57 55 56 54 54 53 54 54 51 50 50 49 49 49 48 49 48 49 50 49 44 43 37 31 25 21 19 16 14 14 14 12 10 9 9 8 7 6 6 6
75 69 67 67 64 62 60 58 57 56 57 55 55 54 52 52 51 50 50 51 52 54 54 54 47 40 34 31 27 24 19 18 17 16 14 13 11 11 10 8 7 7 6
80 79 78 74 72 70 68 64 60 57 62 59 57 55 55 54 53 53 51 51 56 57 57 57 54 47 43 39 34 28 24 21 20 18 16 15 14 14 11 9 8 8 7
84 88 85 79 74 74 73 69 65 63 64 60 60 59 59 59 60 61 59 58 60 62 60 55 56 56 52 45 40 34 28 24 23 21 20 17 17 15 12 10 10 9 8
91 92 89 86 78 76 76 78 68 69 64 65 65 60 62 65 64 61 62 65 64 66 60 64 65 61 58 51 44 38 31 29 27 25 22 19 19 15 13 12 11 10 9
89 92 94 91 87 88 85 83 75 74 83 73 67 72 73 67 65 69 70 72 76 66 73 71 66 62 58 54 47 41 36 33 30 27 25 24 20 16 14 13 13 12 12
88 91 94 95 92 92 89 90 94 96 85 80 84 82 75 69 73 74 85 80 69 71 71 71 69 63 58 54 48 43 38 36 33 30 29 24 19 16 15 14 14 16 14
94 94 94 94 94 93 96 96 97 92 94 91 91 84 75 75 83 86 81 81 73 79 76 69 61 61 59 54 51 46 41 36 32 28 23 20 17 16 14 16 15 14 12
88 87 89 93 94 94 91 90 96 97 96 94 86 81 78 85 90 84 84 81 88 83 75 71 63 64 61 59 53 46 41 34 24 21 20 17 15 15 15 14 15 15 15
85 84 87 90 91 91 87 86 92 95 96 90 79 77 84 88 89 86 85 87 87 78 71 73 74 64 63 59 52 47 38 34 30 27 22 16 15 15 15 16 14 15 17
78 79 81 84 86 87 86 86 88 83 74 71 75 84 87 93 94 92 90 91 80 79 78 75 74 71 61 55 50 43 40 33 27 18 16 17 16 15 14 15 16 20 20
72 73 76 80 84 85 87 88 81 74 74 78 85 86 89 89 92 96 91 86 82 84 77 83 72 58 51 48 43 40 33 25 20 19 18 15 14 15 19 22 22 23 19
71 70 70 71 76 77 82 84 80 78 81 89 87 89 91 93 94 94 88 82 85 82 80 63 55 49 46 45 37 27 23 21 19 17 18 16 18 19 20 21 21 19 19
64 65 64 63 67 72 75 78 77 82 88 89 88 89 92 97 94 95 97 92 86 71 58 49 46 46 38 26 23 22 21 20 19 19 22 22 21 22 22 21 20 21 24
62 65 64 64 68 72 71 72 76 85 86 87 89 94 97 97 97 98 93 76 62 52 46 41 35 31 29 24 21 23 22 25 24 25 29 31 28 26 24 23 24 23 21
62 69 71 71 74 78 79 80 83 84 85 91 93 92 97 97 95 86 72 61 53 46 39 37 33 28 21 20 24 25 26 27 31 33 37 35 34 33 29 26 25 24 20